DW1035 Weather Reports


time (UTC)temp
C
wind
direction
speed
KPH
gust
KPH
rain 1hr
cm
rain 24hr
cm
rain mn
cm
humidity
%
barometer
mb
20260506091507 10 0 0.0 0.0 0.00 0.00 0.00 94 1006.0
20260506091007 10 0 0.0 0.0 0.00 0.00 0.00 94 1006.1
20260506090507 10 0 0.0 0.0 0.00 0.00 0.00 94 1006.1
20260506090006 10 0 0.0 0.0 0.00 0.00 0.00 94 1006.1
20260506084006 10 0 0.0 0.0 0.00 0.00 0.00 93 1006.0
20260506083507 10 0 0.0 0.0 0.00 0.00 0.00 93 1006.0
20260506083006 10 0 0.0 0.0 0.00 0.00 0.00 93 1006.0
20260506080507 10 0 0.0 0.0 0.00 0.00 0.00 91 1006.0
20260506073506 10 0 0.0 0.0 0.00 0.00 0.00 89 1005.8
20260506071506 10 0 0.0 0.0 0.00 0.00 0.00 89 1005.4
20260506071006 10 0 0.0 0.0 0.00 0.00 0.00 89 1005.4
20260506070506 10 0 0.0 0.0 0.00 0.00 0.00 89 1005.4
20260506061505 10 0 0.0 0.0 0.00 0.00 0.00 88 1005.3
20260506061006 10 0 0.0 0.0 0.00 0.00 0.00 88 1005.3
20260506060506 11 0 0.0 0.0 0.00 0.00 0.00 88 1005.3
20260506051005 12 0 0.0 0.0 0.00 0.00 0.00 82 1005.4
20260506050505 12 0 0.0 0.0 0.00 0.00 0.00 82 1005.5
20260506044505 12 0 0.0 0.0 0.00 0.00 0.00 82 1005.5
20260506044006 12 0 0.0 0.0 0.00 0.00 0.00 82 1005.5
20260506043005 12 0 0.0 0.0 0.00 0.00 0.00 82 1005.5
20260506041505 12 0 0.0 0.0 0.00 0.00 0.00 82 1005.5
20260506041005 12 0 0.0 0.0 0.00 0.00 0.00 82 1005.5
20260506040506 12 0 0.0 0.0 0.00 0.00 0.00 82 1005.5
20260506040006 12 0 0.0 0.0 0.00 0.00 0.00 82 1005.4
20260506034505 12 0 0.0 0.0 0.00 0.00 0.00 82 1005.5
20260506033504 12 0 0.0 0.0 0.00 0.00 0.00 82 1005.3
20260506031505 12 0 0.0 0.0 0.00 0.00 0.00 80 1005.4
20260506031005 13 0 0.0 0.0 0.00 0.00 0.00 79 1005.3
20260506030504 13 0 0.0 0.0 0.00 0.00 0.00 79 1005.2
20260506030005 13 0 0.0 0.0 0.00 0.00 0.00 78 1005.1
20260506024505 13 0 0.0 0.0 0.00 0.00 0.00 78 1005.3
20260506023504 13 0 0.0 0.0 0.00 0.00 0.00 77 1005.5
20260506023005 13 0 0.0 0.0 0.00 0.00 0.00 77 1005.3
20260506021504 13 0 0.0 0.0 0.00 0.00 0.00 77 1005.4
20260506021005 13 0 0.0 0.0 0.00 0.00 0.00 77 1005.3
20260506020005 14 0 0.0 0.0 0.00 0.00 0.00 76 1005.5
20260506014504 14 0 0.0 0.0 0.00 0.00 0.00 75 1005.5
20260506014004 15 0 0.0 0.0 0.00 0.00 0.00 75 1005.5
20260506013505 15 0 0.0 0.0 0.00 0.00 0.00 74 1005.4
20260506013005 15 0 0.0 0.0 0.00 0.00 0.00 74 1005.5
20260506011504 15 0 0.0 0.0 0.00 0.00 0.00 72 1005.3
20260506010504 15 0 0.0 0.0 0.00 0.00 0.00 71 1005.1
20260506010004 15 0 0.0 0.0 0.00 0.00 0.00 71 1005.0
20260506004504 16 0 0.0 0.0 0.00 0.00 0.00 70 1005.0
20260506004004 16 0 0.0 0.0 0.00 0.00 0.00 69 1005.0
20260506003505 16 0 0.0 0.0 0.00 0.00 0.00 70 1004.9
20260506003004 16 0 0.0 0.0 0.00 0.00 0.00 68 1004.7
20260506001504 17 0 0.0 0.0 0.00 0.00 0.00 67 1004.2
20260506001004 17 0 0.0 0.0 0.00 0.00 0.00 66 1004.1
20260506000504 17 0 0.0 0.0 0.00 0.00 0.00 65 1003.9
20260506000004 17 0 0.0 0.0 0.00 0.00 0.00 65 1003.7
20260505234504 17 0 0.0 0.0 0.00 0.00 0.00 65 1003.5
20260505234004 17 0 0.0 0.0 0.00 0.00 0.00 65 1003.4
20260505233004 17 0 0.0 0.0 0.00 0.00 0.00 65 1003.5
20260505231504 17 0 0.0 0.0 0.00 0.00 0.00 66 1003.6
20260505230504 17 0 0.0 0.0 0.00 0.00 0.00 66 1002.7
20260505230004 17 0 0.0 0.0 0.00 0.00 0.00 66 1002.2
20260505224504 17 0 0.0 0.0 0.00 0.00 0.00 66 1002.0
20260505223504 17 0 0.0 0.0 0.00 0.00 0.00 65 1001.9
20260505221509 17 0 0.0 0.0 0.00 0.00 0.00 64 1001.7
20260505221010 17 0 0.0 0.0 0.00 0.00 0.00 65 1001.6
20260505220510 17 0 0.0 0.0 0.00 0.00 0.00 66 1001.6
20260505220010 17 0 0.0 0.0 0.00 0.00 0.00 66 1001.5
20260505214509 16 0 0.0 0.0 0.00 0.00 0.00 67 1001.4
20260505214010 16 0 0.0 0.0 0.00 0.00 0.00 67 1001.4
20260505213009 16 0 0.0 0.0 0.00 0.00 0.00 68 1001.4
20260505211510 16 0 0.0 0.0 0.00 0.00 0.00 68 1001.5
20260505211010 16 0 0.0 0.0 0.00 0.00 0.00 68 1001.4
20260505210509 16 0 0.0 0.0 0.00 0.00 0.00 68 1001.5
20260505204510 18 0 0.0 0.0 0.00 0.00 0.00 64 1001.4
20260505204010 18 0 0.0 0.0 0.00 0.00 0.00 63 1001.4
20260505201510 18 0 0.0 0.0 0.00 0.00 0.00 63 1001.5
20260505201009 18 0 0.0 0.0 0.00 0.00 0.00 63 1001.5
20260505200009 19 0 0.0 0.0 0.00 0.00 0.00 62 1001.5
20260505194509 18 0 0.0 0.0 0.00 0.00 0.00 63 1001.8
20260505194009 18 0 0.0 0.0 0.00 0.00 0.00 63 1001.8
20260505193509 18 0 0.0 0.0 0.00 0.00 0.00 64 1001.9
20260505193010 18 0 0.0 0.0 0.00 0.00 0.00 64 1002.1
20260505191009 20 0 0.0 0.0 0.00 0.00 0.00 61 1002.4
20260505190509 20 0 0.0 0.0 0.00 0.00 0.00 61 1002.5
20260505184509 19 0 0.0 0.0 0.00 0.00 0.00 63 1002.9
20260505184009 19 0 0.0 0.0 0.00 0.00 0.00 63 1003.0
20260505183509 19 0 0.0 0.0 0.00 0.00 0.00 61 1002.8
20260505183009 18 0 0.0 0.0 0.00 0.00 0.00 62 1002.8
20260505181009 18 0 0.0 0.0 0.00 0.00 0.00 63 1003.0
20260505180509 18 0 0.0 0.0 0.00 0.00 0.00 63 1003.0
20260505180009 18 0 0.0 0.0 0.00 0.00 0.00 63 1003.0
20260505174009 19 0 0.0 0.0 0.00 0.00 0.00 61 1003.4
20260505173008 19 0 0.0 0.0 0.00 0.00 0.00 62 1003.4
20260505171509 18 0 0.0 0.0 0.00 0.00 0.00 64 1003.6
20260505171008 18 0 0.0 0.0 0.00 0.00 0.00 64 1003.6
20260505170508 20 0 0.0 0.0 0.00 0.00 0.00 61 1003.7
20260505170009 20 0 0.0 0.0 0.00 0.00 0.00 60 1003.9
20260505164508 20 0 0.0 0.0 0.00 0.00 0.00 60 1004.0
20260505163508 20 0 0.0 0.0 0.00 0.00 0.00 58 1004.1
20260505163009 20 0 0.0 0.0 0.00 0.00 0.00 59 1004.3
20260505161508 21 0 0.0 0.0 0.00 0.00 0.00 56 1004.4
20260505160508 22 0 0.0 0.0 0.00 0.00 0.00 55 1004.6
20260505153009 21 0 0.0 0.0 0.00 0.00 0.00 56 1005.1
20260505151508 21 0 0.0 0.0 0.00 0.00 0.00 57 1005.1
20260505151008 20 0 0.0 0.0 0.00 0.00 0.00 57 1005.1
20260505150508 19 0 0.0 0.0 0.00 0.00 0.00 61 1005.2
20260505124507 14 0 0.0 0.0 0.00 0.00 0.00 74 1005.6
20260505124007 14 0 0.0 0.0 0.00 0.00 0.00 73 1005.6
20260505123508 14 0 0.0 0.0 0.00 0.00 0.00 73 1005.5
20260505123007 13 0 0.0 0.0 0.00 0.00 0.00 73 1005.3
20260505121507 12 0 0.0 0.0 0.00 0.00 0.00 76 1005.4
20260505121007 12 0 0.0 0.0 0.00 0.00 0.00 77 1005.4
20260505120507 12 0 0.0 0.0 0.00 0.00 0.00 78 1005.5
20260505120007 12 0 0.0 0.0 0.00 0.00 0.00 78 1005.6
20260505114507 12 0 0.0 0.0 0.00 0.00 0.00 78 1005.6
20260505114007 11 0 0.0 0.0 0.00 0.00 0.00 79 1005.7
20260505113507 11 0 0.0 0.0 0.00 0.00 0.00 80 1005.7
20260505113007 11 0 0.0 0.0 0.00 0.00 0.00 80 1005.8
20260505111507 11 0 0.0 0.0 0.00 0.00 0.00 81 1005.7
20260505110507 10 0 0.0 0.0 0.00 0.00 0.00 83 1005.6
20260505101007 9 0 0.0 0.0 0.00 0.00 0.00 87 1005.7
20260505100506 9 0 0.0 0.0 0.00 0.00 0.00 87 1005.7
20260505100006 9 0 0.0 0.0 0.00 0.00 0.00 87 1005.6
20260505094507 9 0 0.0 0.0 0.00 0.00 0.00 86 1005.7
20260505094007 9 0 0.0 0.0 0.00 0.00 0.00 85 1005.7
20260505093507 9 0 0.0 0.0 0.00 0.00 0.00 85 1005.8
20260505093007 9 0 0.0 0.0 0.00 0.00 0.00 84 1005.7